Flag for Moldova Weather past 2 weeks in Chisinau, Moldova

Now
45 °F

Passing clouds.


Feels Like: 39 °F
Forecast: 36 / 51 °F
Wind: 12 mph from South

Location: Chisinau International Airport

Current Time: Jan 30, 2015 at 10:44:31 PM

Latest Report: Jan 30, 2015 at 10:00 PM


Visibility: N/A

Pressure: 29.24 "Hg

Humidity: 81%

Dew point: 39 °F

Location of ChisinauLocation

Historic Weather in Chisinau — Graph

°F

Chisinau temperature yesterday

Maximum temperature yesterday: 41 °F (at 2:00 PM)
Minimum temperature yesterday: 27 °F (at 8:30 AM)
Average temperature yesterday: 35 °F

Past Weeks' High & Low Weather Summary

 TemperatureHumidityPressure
High48 °F (Jan 23, 1:30 PM)100% (Jan 23, 7:30 AM)30.30 "Hg (Jan 23, 7:30 AM)
Low27 °F (Jan 29, 8:30 AM)66% (Jan 23, 2:30 PM)29.24 "Hg (Jan 30, 9:30 PM)
Average35 °F88%30.02 "Hg
* Reported Jan 15 10:00 PM — Jan 30 10:00 PM, Chisinau, Weather by CustomWeather, © 2014

Note: Actual official high and low records may vary slightly from our data, if they occured in-between our weather recording intervals... More about our weather records

Advertising

Chisinau weather history for previous 24 hours

 ConditionsComfort  
Time TempWeatherWind HumidityBarometerVisibility
10:00 PM
Jan 30
45 °FPassing clouds.12 mph81%29.24 "HgN/A
9:30 PM45 °FPassing clouds.16 mph81%29.24 "HgN/A
9:00 PM45 °FPartly cloudy.12 mph81%29.27 "HgN/A
8:30 PM45 °FPartly cloudy.13 mph81%29.27 "HgN/A
8:00 PM45 °FPartly cloudy.14 mph81%29.30 "HgN/A
7:30 PM45 °FPartly cloudy.15 mph87%29.30 "HgN/A
7:00 PM46 °FPassing clouds.14 mph82%29.30 "HgN/A
6:30 PM46 °FPassing clouds.12 mph82%29.30 "Hg6 mi
6:00 PM46 °FPassing clouds.12 mph82%29.33 "Hg4 mi
5:30 PM46 °FPassing clouds.12 mph82%29.33 "Hg4 mi
5:00 PM46 °FPartly sunny.13 mph82%29.30 "Hg4 mi
4:30 PM46 °FPartly sunny.13 mph76%29.33 "HgN/A
4:00 PM46 °FMostly cloudy.14 mph76%29.36 "HgN/A
3:30 PM46 °FMore clouds than sun.14 mph76%29.33 "HgN/A
3:00 PM45 °FMostly cloudy.14 mph76%29.36 "HgN/A
2:30 PM45 °FMostly cloudy.13 mph76%29.36 "HgN/A
2:00 PM45 °FMostly cloudy.12 mph76%29.39 "HgN/A
1:30 PM45 °FMostly cloudy.14 mph76%29.39 "HgN/A
1:00 PM45 °FMostly cloudy.13 mph76%29.42 "HgN/A
12:30 PM45 °FMostly cloudy.15 mph76%29.42 "HgN/A
12:00 PM45 °FMostly cloudy.14 mph76%29.45 "HgN/A
11:30 AM45 °FMostly cloudy.17 mph76%29.45 "HgN/A
11:00 AM45 °FMostly cloudy.18 mph76%29.45 "HgN/A
10:30 AM45 °FMostly cloudy.15 mph76%29.45 "HgN/A
10:00 AM43 °FLow clouds.21 mph81%29.47 "HgN/A
9:30 AM43 °FBroken clouds.18 mph81%29.47 "HgN/A
9:00 AM43 °FBroken clouds.15 mph81%29.45 "HgN/A
8:30 AM41 °FPartly sunny.13 mph81%29.47 "HgN/A
8:00 AM41 °FPartly sunny.16 mph81%29.47 "HgN/A
7:30 AM41 °FMostly cloudy.16 mph81%29.50 "HgN/A
7:00 AM39 °FMostly cloudy.15 mph87%29.50 "HgN/A
6:30 AM39 °FOvercast.12 mph81%29.50 "HgN/A
6:00 AM39 °FOvercast.16 mph81%29.50 "HgN/A
5:30 AM39 °FOvercast.15 mph75%29.50 "HgN/A
5:00 AM39 °FOvercast.17 mph75%29.50 "HgN/A
4:30 AM39 °FOvercast.16 mph75%29.50 "HgN/A
4:00 AM39 °FOvercast.15 mph75%29.53 "HgN/A
3:30 AM39 °FOvercast.14 mph75%29.53 "HgN/A
3:00 AM39 °FOvercast.13 mph75%29.56 "HgN/A
2:30 AM39 °FOvercast.8 mph75%29.56 "HgN/A
2:00 AM39 °FMostly cloudy.10 mph75%29.56 "HgN/A
1:30 AM39 °FMostly cloudy.12 mph81%29.59 "HgN/A
1:00 AM39 °FMostly cloudy.8 mph81%29.59 "HgN/A
12:30 AM39 °FMostly cloudy.8 mph81%29.59 "HgN/A
12:00 AM39 °FMostly cloudy.9 mph81%29.62 "HgN/A
11:30 PM
Jan 29
39 °FMostly cloudy.9 mph81%29.62 "Hg6 mi
11:00 PM39 °FMostly cloudy.10 mph81%29.62 "HgN/A
10:30 PM39 °FMostly cloudy.12 mph81%29.62 "HgN/A
10:00 PM39 °FMostly cloudy.10 mph81%29.62 "HgN/A
Weather by CustomWeather, © 2014

See weather overviewHow to use our weather pages